www.pogodaiklimat.ru

Погода и климат >> Архив погоды >> Кот-д'Ивуар >> Корого


ПОГОДА в Корого

  • Прогноз погоды в Корого
  • Монитор погоды в Корого

АРХИВ ПОГОДЫ в Корого

Время (UTC), дата Ветер
(напр.,м/с)
 
Видим.   Явления Облачность Т
(С)
Тd
(С)
f
(%)
Тe
(С)
Тes
(С)
Комфортность P
(гПа)
Po
(гПа)
Тmin
(С)
Tmax
(С)
R
(мм)
R24
(мм)
S
(см)
03 19.08 Ю 1 10 км в посл. час дождь 8/5 400 м
[Sc Ac trans]
+23.2 +22.5 96 +32 +32 очень
душно
1010.5 969.3
06 19.08 Ю 3 10 км {дождь} 8/8 330 м
[Cb cap]
+23.1 +22.5 96 +32 +32 очень
душно
1011.3 970.1 +22.8 2
09 19.08 Ю 4 10 км 9/9 400 м
[Cb cap]
+24.0 +22.4 91 +31 +32 очень
душно
1013.5 972.3
12 19.08 ЮЗ 6 10 км 8/8 400 м
[Cu med, cong Ac trans]
+27.2 +21.2 70 +34 +36 очень
душно
1012.2 971.5
15 19.08 ЮЗ 4 10 км 9/9 400 м
[Cu med, cong]
+28.3 +21.6 67 +36 +37 очень
душно
1009.5 969.0
18 19.08 ЮЗ 4 10 км 8/8 400 м
[Cb cap]
+28.2 +21.5 67 +36 +36 очень
душно
1008.5 968.1 +29.5
21 19.08 ЮЗ 2 10 км зарница 8/8 400 м
[Cb cap]
+25.2 +22.3 84 +33 +33 очень
душно
1010.9 970.0
00 20.08 З 1 10 км зарница 9/5 400 м
[Cb cap Ci sp]
+24.3 +22.6 90 +32 +32 очень
душно
1011.4 970.4
03 20.08 С 1 5000 м слаб. дождь 9/9 400 м
[Sc]
+22.9 +22.4 97 +31 +31 очень
душно
1010.2 969.3
06 20.08 ЮЗ 4 10 км гроза, ливневой дождь 10/10 400 м
[Cb cap]
+22.3 +22.0 98 +30 +30 очень
душно
1011.1 969.8 +22.0 7
09 20.08 ЮЗ 2 8000 м гроза, ливневой дождь 10/10 150 м
[Cb cap]
+22.8 +22.5 98 +31 +31 очень
душно
1013.1 971.8
12 20.08 ЮЗ 4 10 км {гроза, дождь} 9/9 330 м
[Cu Sc]
+26.4 +22.3 78 +34 +36 очень
душно
1011.7 970.9 3
15 20.08 ЮЗ 5 10 км 9/6 400 м
[Cu med, cong Ac trans Ci sp]
+28.2 +22.0 69 +36 +38 очень
душно
1010.3 968.1
18 20.08 Ю 4 10 км 8/6 400 м
[Cb cap Ci sp]
+28.5 +22.3 69 +37 +37 очень
душно
1008.4 968.0 +29.3 3
21 20.08 Ю 3 10 км гроза без осадков 9/8 400 м
[Cb cap Ci sp]
+24.6 +22.5 88 +32 +32 очень
душно
1011.4 970.4
00 21.08 Ю 3 10 км гроза без осадков 9/6 330 м
[Cb cap Ac As]
+23.4 +22.2 93 +32 +32 очень
душно
1012.7 971.5
03 21.08 Ю 3 10 км гроза без осадков 9/8 330 м
[Cb cap Ac As]
+22.7 +22.2 97 +31 +31 очень
душно
1012.0 970.7
06 21.08 Ю 3 8000 м {гроза, дождь} 10/10 330 м
[Cb cap]
+22.4 +22.1 98 +30 +30 очень
душно
1012.9 971.5 +22.3 5
09 21.08 Ю 4 10 км 9/6 330 м
[Cu med, cong Ac trans]
+24.1 +22.4 90 +31 +33 очень
душно
1013.8 972.6
12 21.08 Ю 4 10 км 8/8 400 м
[Cu med, cong Ac trans]
+27.0 +21.5 72 +34 +37 очень
душно
1012.6 971.8
15 21.08 Ю 2 10 км 8/8 400 м
[Cu med, cong]
+28.3 +21.9 68 +36 +39 очень
душно
1009.7 969.2
18 21.08 ЮЗ 2 10 км 8/8 400 м
[Cb cap Ci sp]
+27.6 +22.5 74 +36 +36 очень
душно
1009.4 968.9 +29.5 0.4
21 21.08 ЮЗ 2 8000 м гроза, ливневой дождь 9/9 400 м
[Cb cap]
+22.7 +22.2 97 +31 +31 очень
душно
1013.3 972.0
00 22.08 ЮЗ 3 10 км {гроза, дождь} 8/1 400 м
[Sc Ac trans]
+22.8 +22.1 96 +31 +31 очень
душно
1012.8 971.5 6
03 22.08 ЮЗ 3 10 км 8/1 400 м
[Sc Ac trans]
+22.5 +21.8 96 +30 +30 очень
душно
1012.4 971.1
06 22.08 ЮЗ 3 10 км 8/3 400 м
[Sc Ac trans]
+22.2 +21.5 96 +29 +29 очень
душно
1013.5 971.6 +22.2 7
09 22.08 ЮЗ 4 10 км 6/4 400 м
[Cu med, cong Ac trans]
+24.2 +20.5 80 +30 +33 очень
душно
1014.0 972.8
15 22.08 З 2 10 км 9/8 400 м
[Cu med, cong Ac As]
+28.4 +21.7 67 +36 +38 очень
душно
1011.3 970.8
18 22.08 ЮЗ 1 10 км гроза без осадков 10/6 400 м
[Cb cap Ci sp]
+26.5 +22.1 77 +34 +35 очень
душно
1011.2 970.4 +29.2 0.2
21 22.08 ЮЗ 2 10 км зарница {гроза} 6/5 400 м
[Cb cap Ci sp]
+24.0 +22.8 93 +32 +32 очень
душно
1013.0 971.9
00 23.08 ЮЗ 2 10 км зарница {гроза} 8/6 400 м
[Cb cap]
+24.1 +23.1 94 +32 +32 очень
душно
1013.8 972.6
03 23.08 ЮЗ 2 10 км 8/8 400 м
[Sc]
+23.6 +23.1 97 +31 +31 очень
душно
1012.8 971.6
06 23.08 ЮЗ 3 10 км 6/6 400 м
[Sc]
+23.1 +22.8 98 +32 +32 очень
душно
1013.7 972.4 +23.0 0.2
09 23.08 ЮЗ 3 10 км 9/4 400 м
[Sc Ac trans]
+24.6 +22.8 90 +33 +35 очень
душно
1014.4 973.3
12 23.08 З 4 10 км 9/5 400 м
[Cu med, cong Ac trans]
+28.2 +22.4 71 +37 +41 очень
душно
1013.1 972.5
15 23.08 СЗ 4 10 км 9/6 400 м
[Cb cap Ac As]
+28.5 +22.5 70 +37 +39 очень
душно
1010.6 970.1
18 23.08 З 3 10 км 9/5 400 м
[Cb cap Ci sp]
+28.0 +22.2 71 +37 +37 очень
душно
1010.0 969.5 +29.9
21 23.08 ЮЗ 2 10 км зарница 9/4 400 м
[Cb cap Ci sp]
+25.8 +23.3 86 +35 +35 очень
душно
1012.3 971.4
00 24.08 ЮЗ 3 10 км 9/3 400 м
[Sc Ci sp]
+25.6 +23.3 87 +34 +34 очень
душно
1012.4 971.3
03 24.08 Ю 3 10 км 9/3 400 м
[Sc Ci sp]
+23.5 +22.1 92 +30 +30 очень
душно
1010.8 969.7
06 24.08 З 2 10 км гроза, ливневой дождь 10/10 400 м
[Cb cap]
+20.6 +20.3 98 +26 +26 душно 1013.1 971.4 +20.6 22
09 24.08 З 4 10 км в посл. час гроза {дождь} 10/8 330 м
[Sc Ac As]
+21.5 +20.7 95 +27 +27 душно 1014.6 973.0
12 24.08 З 4 5000 м слаб. дождь {гроза} 10/6 330 м
[Sc Ac As]
+21.6 +20.9 96 +27 +29 душно 1014.7 973.1 3
15 24.08 З 5 4000 м слаб. дождь 10/9 330 м
[Cb cap]
+19.6 +19.3 98 +22 +22 комфорт 1014.4 972.5
18 24.08 З 5 8000 м слаб. дождь 10/1 400 м
[Sc Ac As]
+20.6 +19.6 94 +25 +25 комфорт 1013.0 971.3 +25.6 33
21 24.08 З 3 10 км {дождь} 9/4 330 м
[Sc Ac As]
+20.8 +20.5 98 +26 +26 душно 1012.3 970.7
00 25.08 Ю 3 10 км {дождь} 10/6 330 м
[Sc Ac As]
+21.5 +21.2 98 +27 +27 душно 1014.2 972.6 0.9
03 25.08 ЮЗ 3 10 км 10/6 330 м
[Sc Ac As]
+21.4 +21.1 98 +27 +27 душно 1012.9 971.4
06 25.08 Ю 4 10 км 8/8 150 м
[Sc Ac trans]
+21.2 +20.7 97 +26 +26 душно 1012.6 971.0 +21.1 34
09 25.08 Ю 4 10 км 10/10 330 м
[Sc]
+23.1 +21.5 91 +31 +31 очень
душно
1014.6 973.2
12 25.08 ЮЗ 4 10 км 9/8 400 м
[Cu med, cong Ac trans]
+26.1 +22.2 79 +34 +36 очень
душно
1013.5 972.5
15 25.08 ЮЗ 3 10 км 8/8 400 м
[Cu med, cong]
+29.5 +21.5 62 +37 +40 очень
душно
1009.7 969.4
18 25.08 ЮЗ 4 10 км 8/8 400 м
[Cu med, cong]
+28.2 +21.2 66 +36 +36 очень
душно
1009.5 969.0 +30.1

 

Местоположение метеостанции Корого (Кот-д'Ивуар): широта 9.42 долгота -5.62 высота над уровнем моря 381 м.

В архиве по умолчанию представлена погода в Корого за последнюю неделю. Архивные данные за месяц целиком и за предыдущие месяцы, начиная с января 2011 года, Вы можете получить, выбрав интересующий диапазон дат из раскрывающегося списка и нажав кнопку "Ввод!".


*Определитесь, кто Вы:
робот инопланетянин человек

Внимание! Время в таблицах - всемирное. Для получения местного времени необходимо прибавить поправку, которая равна 0 ч.

Смотрите также архив погоды в соседних городах и на ближайших метеорологических станциях:

Погода в Буаке (Кот-д'Ивуар) (196 км)
Погода в Одиенне (Кот-д'Ивуар) (213 км)
Погода в Сикасо (Мали) (215 км)
Погода в Бобо-Диуласо (Буркина-Фасо) (241 км)
Погода в Ямусукро (Кот-д'Ивуар) (282 км)
Погода в Гауа (Буркина-Фасо) (286 км)
Погода в Далоа (Кот-д'Ивуар) (299 км)
Погода в Бугуни (Мали) (303 км)
Погода в Мане (Кот-д'Ивуар) (309 км)
Погода в Димбокро (Кот-д'Ивуар) (324 км)

Пояснения к столбцам:

Ветер - указаны скорость ветра в м/с - средняя за 10 мин, порывы в срок и между сроками (в фигурных скобках) и направление, откуда дует ветер: С - северный, СВ - северо-восточный, В - восточный, ЮВ - юго-восточный, Ю - южный, ЮЗ - юго-западный, З - западный, СЗ - северо-западный.
Видимость - горизонтальная дальность видимости в метрах или километрах. При видимости от 1 до 10 км при отсутствии осадков обычно наблюдается дымка, при ухудшении видимости до 1 км и менее - туман. В сухую погоду видимость может ухудшаться дымом, пылью или мглою.
Явления - указаны атмосферные явления, наблюдавшиеся в срок или в последний час перед сроком; фигурными скобками обозначены явления, наблюдавшиеся между сроками (за 1-3 часа до срока); квадратными скобками обозначены град или гололедные отложения с указанием их диаметра в мм.
Облачность - указаны через наклонную черту общая и нижняя облачность в баллах и высота нижней границы облаков в метрах; квадратными скобками обозначены формы облаков: Ci - перистые, Cs - перисто-слоистые, Cc - перисто-кучевые, Ac - высококучевые, As - высокослоистые, Sc - слоисто-кучевые, Ns - слоисто-дождевые, Cu - кучевые, Cb - кучево-дождевые. Подробнее классификацию облаков см. в Атласе облаков (PDF).
T - Температура воздуха - температура, измеренная на высоте 2 м над землей.
Td - Температура точки росы - температура, при понижении до которой содержащийся в воздухе водяной пар достигнет насыщения.
f - Относительная влажность воздуха - влажноcть воздуха, измеренная на высоте 2 м над землей.
Te - Эффективная температура - температура, которую ощущает одетый по сезону человек в тени. Характеристика душности погоды. При расчете учитывается влияние влажности воздуха и скорости ветра на теплоощущения человека.
Tes - Эффективная температура на солнце - температура, которую ощущает человек, с поправкой на солнечный нагрев. Характеристика знойности погоды. Зависит от высоты солнца над горизонтом, облачности и скорости ветра. Ночью, в пасмурную погоду, а также при ветре 12 м/с и более поправка равна нулю.
P - Атмосферное давление - приведенное к уровню моря атмосферное давление.
Po - Атмосферное давление - измеренное на уровне метеостанции атмосферное давление.
Tmin - Минимальная температура - минимум температуры воздуха на высоте 2 м над землей.
Tmax - Максимальная температура - максимум температуры воздуха на высоте 2 м над землей.
R - Количество осадков - Количество выпавших осадков за период времени, мм. При наведении курсора мыши на число - период времени, за который выпало указанное количество осадков.
R24 - Количество осадков - Количество выпавших осадков за 24 часа, мм.
S - Снежный покров - Высота снежного покрова, см. При наведении курсора мыши на число - состояние снежного покрова и степень покрытия местности в баллах.